[Iaude] MPEC C95: 2024 CR1 [a=2.28,e=0.73,i=17.4,H=20.8]

mpec at cfa.harvard.edu mpec at cfa.harvard.edu
Fri Feb 9 08:58:05 EST 2024


M.P.E.C. 2024-C95                              Issued 2024 February 9, 13:56 UT

     The Minor Planet Electronic Circulars contain information on unusual
         minor planets, routine data on comets and natural satellites,
         and occasional editorial announcements.  They are published
    on behalf of Division F of the International Astronomical Union by the
          Minor Planet Center, Smithsonian Astrophysical Observatory,
                          Cambridge, MA 02138, U.S.A.
			  
             Prepared using the Tamkin Foundation Computer Network

                              MPC at CFA.HARVARD.EDU
            URL https://www.minorplanetcenter.net/    ISSN 1523-6714

                                    2024 CR1                                    


Observations:
     K24C01R*1C2024 02 05.28974009 09 42.836-01 40 36.77         20.75GVEC095G96
     K24C01R 1C2024 02 05.29489209 09 42.203-01 40 26.26         21.62GVEC095G96
     K24C01R 1C2024 02 05.30520409 09 40.885-01 40 04.26         21.21GVEC095G96
     K24C01R KC2024 02 05.37614709 09 32.108-01 37 31.91         21.87GVEC095I52
     K24C01R KC2024 02 05.37924209 09 31.608-01 37 25.72         21.26GVEC095I52
     K24C01R KC2024 02 05.38234509 09 31.212-01 37 18.77         21.19GVEC095I52
     K24C01R KC2024 02 05.38543809 09 30.928-01 37 12.47         22.22GVEC095I52
     K24C01R  C2024 02 05.47525009 09 19.843-01 34 00.37         21.2 GVEC095H01
     K24C01R  C2024 02 05.47909909 09 19.353-01 33 52.10         21.5 GVEC095H01
     K24C01R  C2024 02 05.48967609 09 18.087-01 33 29.38         21.3 GVEC095H01
     K24C01R  C2024 02 05.49654309 09 17.251-01 33 14.88         21.2 GVEC095H01
     K24C01R  C2024 02 06.42661909 07 28.561-01 00 22.64         21.51wXEC095F52
     K24C01R  C2024 02 06.43711309 07 27.294-01 00 00.64         21.65wXEC095F52
     K24C01R  C2024 02 06.44760009 07 26.030-00 59 38.55         21.66wXEC095F52
     K24C01R  C2024 02 06.45807509 07 24.735-00 59 17.07         21.72wXEC095F52
     K24C01R KC2024 02 09.52713409 01 45.965+00 45 11.84         21.4 GVEC095474
     K24C01R KC2024 02 09.53417209 01 45.288+00 45 25.67         20.9 GVEC095474
     K24C01R KC2024 02 09.54120909 01 44.496+00 45 39.78         21.6 GVEC095474

Observer details:
474 Mount John Observatory, Lake Tekapo.  Observers A. C. Gilmore, P. M.
    Kilmartin.  Measurer P. M. Kilmartin.  1.0-m f/7.7 Reflector + CCD.
F52 Pan-STARRS 2, Haleakala.  Observers J. Herman, T. Lowe, P. Minguez, A.
    Schultz, I. Smith.  Measurers K. Chambers, T. de Boer, J. Fairlamb, H.
    Gao, M. Huber, C.-C. Lin, E. Magnier, Y. Ramanjooloo, R. Wainscoat, R.
    Weryk.  1.8-m Ritchey-Chretien + CCD.
G96 Mt. Lemmon Survey.  Observers V. F. Carvajal, D. Rankin.  Measurers T.
    Beuden, V. F. Carvajal, D. Fay, J. B. Fazekas, D. C. Fuls, A. R. Gibbs, A.
    D. Grauer, H. Groeller, J. K. Hogan, R. A. Kowalski, S. M. Larson, G. J.
    Leonard, D. Rankin, R. L. Seaman, F. C. Shelly, K. W. Wierzchos.  1.5-m
    reflector + 10K CCD.
H01 Magdalena Ridge Observatory, Socorro.  Observers W. H. Ryan, E. V. Ryan.
    Measurer W. H. Ryan.  2.4-m f/8.9 Ritchey-Chretien + CCD.
I52 Steward Observatory, Mt. Lemmon Station.  Observer H. Groeller.  Measurers
    E. C. Beshore, D. Fay, J. B. Fazekas, D. C. Fuls, A. R. Gibbs, A. D.
    Grauer, H. Groeller, J. K. Hogan, R. A. Kowalski, S. M. Larson, G. J.
    Leonard, D. Rankin, R. L. Seaman, F. C. Shelly, K. W. Wierzchos.  1.0-m
    prime focus + CCD.

Orbital elements:
2024 CR1                                                 Earth MOID = 0.2058 AU
Epoch 2023 Sept. 13.0 TT = JDT 2460200.5                MPC                     
M 346.33513              (2000.0)            P               Q                  
n   0.28611783     Peri.  219.00873     +0.93690894     -0.33389559             
a   2.2808992      Node   159.75010     +0.34513181     +0.93057381             
e   0.7311630      Incl.   17.40217     -0.05554887     +0.15015363             
P   3.44           H   20.88          G   0.15           U   9                  
Residuals in seconds of arc
240205 G96  0.2+  0.3+    240205 I52  0.4+  0.3-    240206 F52  0.1+  0.1+
240205 G96  0.3+  0.2-    240205 H01  0.2+  0.0     240206 F52  0.2+  0.1+
240205 G96  0.1-  0.3-    240205 H01  0.1-  0.1+    240206 F52  0.2-  0.4-
240205 I52  0.8+  0.2+    240205 H01  0.1+  0.2+    240209 474  0.7-  0.0
240205 I52  0.9-  0.3-    240205 H01  0.1+  0.0     240209 474  0.6+  0.1-
240205 I52  1.1-  0.0     240206 F52  0.0   0.1+    240209 474  0.2+  0.1+

Ephemeris:
2024 CR1                 a,e,i = 2.28, 0.73, 17                  q = 0.6132
Date    TT    R. A. (2000) Decl.     Delta      r    Elong.  Phase     V
2024 01 10    10 16 23.8 -18 47 11   0.4996  1.3120   120.9    40.0    21.5
...
2024 01 25    09 35 38.0 -08 54 20   0.5588  1.4847   147.1    21.1    21.5
...
2024 02 02    09 16 36.0 -03 41 07   0.6140  1.5734   158.8    13.1    21.6
...
2024 02 08    09 04 30.5 -00 06 04   0.6677  1.6383   163.9     9.6    21.7
2024 02 09    09 02 41.9 +00 27 34   0.6777  1.6490   164.2     9.3    21.7
2024 02 10    09 00 57.0 +01 00 31   0.6879  1.6596   164.4     9.2    21.8
...
2024 02 16    08 51 45.9 +04 03 02   0.7555  1.7227   162.2    10.1    22.1
...
2024 02 24    08 42 56.1 +07 25 18   0.8605  1.8046   154.5    13.6    22.6
...
2024 03 10    08 35 35.9 +11 51 45   1.0956  1.9517   138.2    19.8    23.5

A. U. Tomatic                (C) Copyright 2024 MPC           M.P.E.C. 2024-C95





More information about the Iaude mailing list